TimeEST,TemperatureF,Dew PointF,Humidity,Sea Level PressureIn,VisibilityMPH,Wind Direction,Wind SpeedMPH,Gust SpeedMPH,PrecipitationIn,Events,Conditions,WindDirDegrees,DateUTC
12:54 AM,48.9,45.0,86,29.95,10.0,NW,4.6,-,N/A,,Clear,320,2013-11-03 04:54:00
1:54 AM,48.9,43.0,80,29.96,10.0,NW,5.8,-,N/A,,Clear,320,2013-11-03 05:54:00
1:54 AM,48.0,43.0,83,29.97,10.0,NW,5.8,-,N/A,,Clear,320,2013-11-03 06:54:00
2:54 AM,46.9,41.0,80,29.99,10.0,NNW,3.5,-,N/A,,Clear,330,2013-11-03 07:54:00
3:54 AM,48.0,39.9,74,30.01,10.0,North,5.8,-,N/A,,Clear,350,2013-11-03 08:54:00
4:54 AM,46.9,39.0,74,30.04,10.0,NNW,5.8,-,N/A,,Clear,340,2013-11-03 09:54:00
5:54 AM,45.0,37.9,76,30.07,10.0,NNW,4.6,-,N/A,,Clear,330,2013-11-03 10:54:00
6:54 AM,43.0,37.9,82,30.10,10.0,NW,4.6,-,N/A,,Clear,310,2013-11-03 11:54:00
7:54 AM,50.0,37.9,63,30.14,10.0,North,9.2,-,N/A,,Clear,350,2013-11-03 12:54:00
8:54 AM,55.0,39.0,55,30.17,10.0,North,8.1,-,N/A,,Clear,350,2013-11-03 13:54:00
9:54 AM,60.1,37.9,44,30.17,10.0,North,11.5,17.3,N/A,,Clear,360,2013-11-03 14:54:00
10:54 AM,62.1,36.0,38,30.19,10.0,North,10.4,-,N/A,,Clear,350,2013-11-03 15:54:00
11:54 AM,64.0,36.0,35,30.18,10.0,NNE,9.2,19.6,N/A,,Clear,30,2013-11-03 16:54:00
12:54 PM,64.9,36.0,34,30.16,10.0,North,12.7,19.6,N/A,,Clear,10,2013-11-03 17:54:00
1:54 PM,66.0,36.0,33,30.16,10.0,Variable,4.6,-,N/A,,Clear,0,2013-11-03 18:54:00
2:54 PM,66.0,35.1,32,30.17,10.0,North,5.8,-,N/A,,Clear,350,2013-11-03 19:54:00
3:54 PM,64.0,35.1,34,30.18,10.0,North,10.4,-,N/A,,Clear,350,2013-11-03 20:54:00
4:54 PM,62.1,37.0,39,30.20,10.0,North,5.8,-,N/A,,Clear,350,2013-11-03 21:54:00
5:54 PM,55.0,39.0,55,30.22,10.0,NNE,3.5,-,N/A,,Clear,30,2013-11-03 22:54:00
6:54 PM,46.9,42.1,83,30.25,10.0,Calm,Calm,-,N/A,,Clear,0,2013-11-03 23:54:00
7:54 PM,46.0,41.0,83,30.28,10.0,Calm,Calm,-,N/A,,Clear,0,2013-11-04 00:54:00
8:54 PM,45.0,41.0,86,30.30,10.0,Calm,Calm,-,N/A,,Clear,0,2013-11-04 01:54:00
9:54 PM,44.1,41.0,89,30.32,10.0,NNE,4.6,-,N/A,,Clear,30,2013-11-04 02:54:00
10:54 PM,46.9,39.9,77,30.33,10.0,NNE,3.5,-,N/A,,Clear,30,2013-11-04 03:54:00